Regional Weather Roundup
Issued by NWS

Home | Current Version | Previous Version | Graphics & Text | Print | Product List | Glossary On
Versions: 1 2 3 4 5 6 7 8 9 10 11 12 13 14 15 16 17 18 19 20 21 22 23 24 25 26 27 28 29 30 31 32 33 34 35 36 37 38 39 40 41 42 43 44 45 46 47 48 49 50
000
ASUS43 KBIS 300102
RWRND

NORTH DAKOTA REGIONAL WEATHER ROUNDUP
NATIONAL WEATHER SERVICE BISMARCK ND
800 PM CDT SAT AUG 29 2015

NOTE: "FAIR" INDICATES FEW OR NO CLOUDS BELOW 12,000 FEET WITH NO
SIGNIFICANT WEATHER AND/OR OBSTRUCTIONS TO VISIBILITY.


NDZ001>003-009>011-017-300200-
NORTHWEST NORTH DAKOTA

CITY           SKY/WX    TMP DP  RH WIND       PRES   REMARKS
WILLISTON      MOCLDY    80  60  50 N5        29.77F HAZE
MINOT          PTCLDY    82  56  40 SE7       29.77F HAZE
MINOT AFB      MOCLDY    82  58  44 SE1       29.76S
$$

NDZ018>021-031>035-040>046-300200-
SOUTHWEST NORTH DAKOTA

CITY           SKY/WX    TMP DP  RH WIND       PRES   REMARKS
BISMARCK       PTCLDY    80  62  54 S9        29.82F HAZE
DICKINSON      PTCLDY    83  47  28 S7        29.82S
GARRISON         N/A     80  60  50 SE7       29.79F
HETTINGER ARPT CLEAR     84  47  27 SE6       29.88S
$$

NDZ004>008-012>016-024-026-027-054-300200-
NORTHEAST NORTH DAKOTA

CITY           SKY/WX    TMP DP  RH WIND       PRES   REMARKS
GRAND FORKS    MOCLDY    73  68  84 S6        29.82S
GRND FRKS AFB  MOCLDY    73  68  85 S7        29.83S
DEVILS LAKE    PTCLDY    77  64  65 S9        29.80F
$$

NDZ022-023-025-028>030-036>039-047>053-300200-
SOUTHEAST NORTH DAKOTA

CITY           SKY/WX    TMP DP  RH WIND       PRES   REMARKS
FARGO          PTCLDY    78  68  71 S15       29.86S
JAMESTOWN      PTCLDY    77  71  82 S6        29.85S
$$



USA.gov is the U.S. government's official web portal to all federal, state and local government web resources and services.